Regional Weather Roundup
Issued by NWS Green Bay, WI

Home | Current Version | Previous Version | Graphics & Text | Print | Product List | Glossary Off
Versions: 1 2 3 4 5 6 7 8 9 10 11 12 13 14 15 16 17 18 19 20 21 22 23 24 25 26 27 28 29 30 31 32 33 34 35 36 37 38 39 40 41 42 43 44 45 46 47 48 49 50

000
ASUS43 KGRB 290211
RWRGRB

NORTH-CENTRAL AND NORTHEAST WISCONSIN REGIONAL WEATHER ROUNDUP
NATIONAL WEATHER SERVICE GREEN BAY WI
900 PM CDT SAT MAY 28 2016

WIZ005-009-010>012-018-019-290300-
NORTH CENTRAL WISCONSIN

CITY           SKY/WX    TMP DP  RH WIND       PRES   REMARKS
IRONWOOD       CLOUDY    55  55 100 CALM      29.79F VSB 3/4
MANITOWISH WTR NOT AVBL
ARBOR VITAE    MOCLDY    65  64  94 CALM      29.81S
EAGLE RIVER      N/A     64  63  96 CALM      29.82S
LAND O LAKES   FOG       64  63  97 CALM      29.84S VSB 1/2
RHINELANDER    CLOUDY    67  62  84 CALM      29.82S
PHILLIPS       CLOUDY    65  65 100 CALM      29.78F
ANTIGO         CLOUDY    66  62  85 CALM      29.82F
TOMAHAWK       MOCLDY    65  62  89 CALM      29.80F
MERRILL        CLOUDY    68  64  88 CALM      29.80S
$$

WIZ013-073-290300-
NORTHEAST WISCONSIN

CITY           SKY/WX    TMP DP  RH WIND       PRES   REMARKS
IRON MOUNTAIN  CLEAR     67  59  75 CALM      29.81S
MARINETTE      CLEAR     72  63  73 S9        29.83F
OCONTO         PTCLDY    69  67  94 S7        29.82S
$$

WIZ017-030-035>037-045-290300-
CENTRAL WISCONSIN

CITY           SKY/WX    TMP DP  RH WIND       PRES   REMARKS
MEDFORD        TSTM      62  62  99 W12G31    29.82R
WAUSAU         CLOUDY    71  63  75 S9        29.79R
MOSINEE        MOCLDY    66  64  94 S5        29.82R
MARSHFIELD     MOCLDY    68  59  73 SW9       29.80R
WISC RAPIDS    CLOUDY    67  63  87 S6        29.82R
STEVENS POINT  CLOUDY    65  61  85 S6        29.82R
WAUPACA        LGT RAIN  67  65  90 S8        29.83S
SHAWANO        CLOUDY    75  64  69 SE3       29.81R
CLINTONVILLE   LGT RAIN  68  59  73 S13G31    29.84R
WAUTOMA        CLOUDY    66  63  90 SE6       29.84S
$$

WIZ038-039-048-051-290300-
FOX VALLEY

CITY           SKY/WX    TMP DP  RH WIND       PRES   REMARKS
NWS GREEN BAY  MOCLDY    67  61  81 SW17G29   29.86R
APPLETON       MOCLDY    64  59  82 SW13      29.84S
OSHKOSH        LGT RAIN  63  59  87 S10       29.85F
FOND DU LAC    CLOUDY    63  61  93 E7        29.86F
$$

WIZ022-050-052-290300-
EAST CENTRAL WISCONSIN

CITY           SKY/WX    TMP DP  RH WIND       PRES   REMARKS
EPHRAIM        FAIR      64  59  85 S10G18    29.85S
STURGEON BAY   NOT AVBL
MANITOWOC      CLEAR     67  60  78 SW18G26   29.90R
SHEBOYGAN      CLOUDY    67  58  72 W16G30    29.91R
$$

LMZ563-521-522-541>543-290300-
LAKESHORE

STATION/POSITION TIME  TEMP    WIND        PRES    VSBY  WAVE
                       AIR SEA DIR/SP/G                  HT/PER
                 (UTC) (F)     (DEG/KT/KT) (MB)    (MI)  (FT/S)
SHEBOYGAN LKSHOR 0200   60     190/ 15/ 15 1011.9R
KEWAUNEE LKSHORE 0100   53                 1010.5
ALGOMA MARINA    0132          210/  9/ 11   N/A
NORTHPORT PIER   0100   62     160/ 11/ 18 1010.8S
N MID LAKE BUOY  0150   53 47  190/ 14/ 14 1011.5R         4/ 6
SISTER BAY LKSHO 0105   66     170/ 17/ 22   N/A
CHAMBERS ISLAND  0100   68     150/  5/ 15 1010.2S
MENOMINEE LKSHOR 0100   67                 1009.1
$$



USA.gov is the U.S. government's official web portal to all federal, state and local government web resources and services.